sat.trackr.live / text

‹ back to catalog

STARLINK-4480

NORAD 53416 · 2022-097AE

PAYLOAD ACTIVE UNKNOWN

§ Identity

Operator
Country
US
Launch date
2022-08-10
Launch site
AFETR
Launch vehicle
Mass (kg)
RCS (m²)

Purposes: comms

External: N2YO · Heavens-Above · Gunter

§ Orbital elements

Epoch: 2026-05-25T02:49:15.632256Z

Period
95.44 min
Inclination
53.2156°
Eccentricity
0.0001218
Mean motion
15.08840358 rev/d
Perigee alt
538.9 km
Apogee alt
540.6 km
Semi-major
6,917.9 km
B*
-3.0491e-5
RAAN
130.9726°
Arg perigee
71.7823°
Mean anomaly
288.3301°
Rev number
21,016

§ Raw data

STARLINK-44801 53416U 22097AE  26145.11754204 -.00000773  00000+0 -30491-4 0  99902 53416  53.2156 130.9726 0001218  71.7823 288.3301 15.08840358210168

JSON: /api/v1/satellites/53416 · /tle

For live sub-satellite position, see the globe view (requires WebGL).

§ Visibility from observer

Set your observer location to see the next 7 days of passes ≥ 10°. The values pass through the URL so the page stays shareable.

No JS? Fill the form by hand. The geolocation button needs JavaScript.